Location: Gibsondale
(40.9931°N, 80.2478°W)
Time: 23:26:30
(UTC+00:00)

Cosmos 44 Rocket - Pass Details

Date: 29 October 2020
Orbit: 642 x 748 km, 65.1° (Epoch: 29 November)

Event Time Altitude Azimuth Distance (km) Brightness Sun altitude
Rises 23:05:55 0° 183° (S) 2,963 6.7 -9.3°
Reaches altitude 10° 23:08:24 10° 173° (S) 2,070 5.8 -9.7°
Maximum altitude 23:12:28 30° 112° (ESE) 1,202 4.1 -10.5°
Enters shadow 23:16:14 12° 55° (NE) 1,987 5.1 -11.2°
